Probability
0 0 0 0 0 0 0 0 0 0 0 0 0 0 0 0 0 0 0 0 0 0 0 0 1 2 3 1 0 0 0 0 0 0 0 0 0 0 0 0 0 0 0 0 0 0 0 0 0
0 0 0 0 0 0 0 0 0 0 0 0 0 0 0 0 0 0 0 0 0 0 0 0 1 2 3 2 1 0 0 0 0 0 0 0 0 0 0 0 0 0 0 0 0 0 0 0 0
0 0 0 0 0 0 0 0 0 0 0 0 0 0 0 0 0 0 0 0 0 0 0 0 1 2 3 3 2 1 0 0 0 0 0 0 0 0 0 0 0 0 0 0 0 0 0 0 0
0 0 0 0 0 0 0 0 0 0 0 0 0 0 0 0 0 0 0 0 0 0 0 0 1 2 3 3 3 2 1 1 1 0 0 0 0 0 0 0 0 0 0 0 0 0 0 0 0
0 0 0 0 0 0 0 0 0 0 0 0 0 0 0 0 0 0 0 0 0 0 0 0 0 1 2 3 3 3 3 2 1 0 0 0 0 0 0 0 0 0 0 0 0 0 0 0 0
0 0 0 0 0 0 0 0 0 0 0 0 0 0 0 0 0 0 0 0 0 0 0 0 0 0 1 1 2 3 3 3 2 1 0 0 0 0 0 0 0 0 0 0 0 0 0 0 0
1 1 0 0 0 0 0 0 0 0 0 0 0 0 0 0 0 0 0 0 0 0 0 0 0 0 0 0 1 1 2 2 2 1 0 0 0 0 0 0 0 0 0 0 0 0 0 0 0
0 0 0 0 0 0 0 0 0 0 0 0 0 0 0 0 0 0 0 0 0 0 0 0 0 0 0 0 0 0 1 1 1 1 0 0 0 0 0 0 0 0 0 0 0 0 0 0 0
0 0 0 0 0 0 0 0 0 0 0 0 0 0 0 0 0 0 0 0 0 0 0 0 0 0 0 0 0 0 0 0 0 0 0 0 0 0 0 0 0 0 0 0 0 0 0 0 0
0 0 0 0 0 0 0 0 0 0 0 0 0 0 0 0 0 0 0 0 0 0 0 0 0 0 0 0 0 0 0 0 0 0 0 0 0 0 0 0 0 0 0 0 0 0 0 0 0
0 0 0 0 0 0 0 0 0 0 0 0 0 0 0 0 0 0 0 0 0 0 0 0 0 0 0 0 0 0 0 0 0 0 0 0 0 0 0 0 0 0 0 0 0 0 0 0 0
0 0 0 0 0 0 0 0 0 0 0 0 0 0 0 1 1 1 0 0 0 0 0 0 0 0 0 0 0 0 0 0 0 0 0 0 0 0 0 0 0 0 0 0 0 0 0 0 0
0 0 0 0 0 0 0 0 0 0 0 0 0 0 0 1 2 2 1 0 0 0 0 0 0 0 0 0 0 0 0 0 0 0 0 0 0 0 0 0 0 0 0 0 0 0 0 0 0
0 0 0 0 0 0 0 0 0 0 0 0 0 0 1 1 1 2 1 0 0 0 0 0 0 0 0 0 0 0 0 0 0 0 0 0 0 0 0 0 0 0 0 0 0 0 0 0 0
0 0 0 0 0 0 0 0 0 0 0 0 0 0 0 0 1 1 1 0 0 0 0 0 0 0 0 0 0 0 0 0 0 0 0 0 0 0 0 0 0 0 0 0 0 0 0 0 0
0 0 0 0 0 0 0 0 0 0 0 0 0 0 0 0 0 1 1 0 0 0 0 0 0 0 0 0 0 0 0 0 0 0 0 0 0 0 0 0 0 0 0 0 0 0 0 0 0
0 0 0 0 0 0 0 0 0 0 0 0 0 0 0 0 0 0 0 0 0 0 0 0 0 0 0 0 0 0 0 0 0 0 0 0 0 0 0 0 0 0 0 0 0 0 0 0 0
0 0 0 0 0 0 0 0 0 0 0 0 0 0 0 0 0 0 0 0 0 0 0 0 0 0 0 0 0 0 0 0 0 0 0 0 0 0 0 0 0 0 0 0 0 0 0 0 0
0 0 0 0 0 0 0 0 0 0 0 0 0 0 0 0 0 0 0 0 0 0 0 0 0 0 0 0 0 0 0 0 0 0 0 0 0 0 0 0 0 0 0 0 0 0 0 0 0
0 0 0 0 0 0 0 0 0 0 0 0 0 0 0 0 0 0 0 0 0 0 0 0 0 0 0 0 0 0 0 0 0 0 0 0 0 0 0 0 0 0 0 0 0 0 0 0 0
0 0 0 0 0 0 0 0 0 0 0 0 0 0 0 0 0 0 0 0 0 0 0 0 0 0 0 0 0 0 0 0 0 0 0 0 0 0 0 0 0 0 0 0 0 0 0 0 0
0 0 0 0 0 0 0 0 0 0 0 0 0 0 0 0 0 0 0 0 0 0 0 0 0 0 0 0 0 0 0 0 0 0 0 0 0 0 0 0 0 0 0 0 0 0 0 0 0
0 0 0 0 0 0 0 0 0 0 0 0 0 0 0 0 0 0 0 0 0 0 0 0 0 0 0 0 0 0 0 0 0 0 0 0 0 0 0 0 0 0 0 0 0 0 0 0 0
0 0 0 0 0 0 0 0 0 0 0 0 0 0 0 0 0 0 0 0 0 0 0 0 0 0 0 0 0 0 0 0 0 0 0 0 0 0 0 0 0 0 0 0 0 0 0 0 0
0 0 0 0 0 0 0 0 0 0 0 0 0 0 0 0 0 0 0 0 0 0 0 0 0 0 0 0 0 0 0 0 0 0 0 0 0 0 0 0 0 0 0 0 0 0 0 0 0
0 0 0 0 0 0 0 0 0 0 0 0 0 0 0 0 0 0 0 0 0 0 0 0 0 0 0 0 0 0 0 0 0 0 0 0 0 0 0 0 0 0 0 0 0 0 0 0 0
0 0 0 0 0 0 0 0 0 0 0 0 0 0 0 0 0 0 0 0 0 0 0 0 0 0 0 0 0 0 0 0 0 0 0 0 0 0 0 0 0 0 0 0 0 0 0 0 0
0 0 0 0 0 0 0 0 0 0 0 0 0 0 0 0 0 0 0 0 0 0 0 0 0 0 0 0 0 0 0 0 0 0 0 0 0 0 0 0 0 0 0 0 0 0 0 0 0
0 0 0 0 0 0 0 0 0 0 0 0 0 0 0 0 0 0 0 0 0 0 0 0 0 0 0 0 0 0 0 0 0 0 0 0 0 0 0 0 0 0 0 0 0 0 0 0 0
0 0 0 0 0 0 0 0 0 0 0 0 0 0 0 0 0 0 0 0 0 0 0 0 0 0 0 0 0 0 0 0 0 0 0 0 0 0 0 0 0 0 0 0 0 0 0 0 0
Wind_Speed
14 8 1 3 5 4 0 2 1 2 4 4 7 10 10 7 5 5 1 6 10 8 7 8 10 11 11 11 11 10 10 11 11 11 11 11 11 11 11 10 9 10 10 10 10 10 9 9 9
7 4 3 5 5 2 1 2 2 2 5 5 7 8 9 7 5 6 3 6 10 9 7 7 9 11 11 10 10 10 10 10 10 11 11 11 10 10 9 9 9 9 9 9 9 8 8 7 7
6 1 4 4 3 3 2 0 4 4 4 4 6 7 6 4 3 3 4 8 9 8 6 7 9 10 11 10 10 10 10 10 10 10 10 10 9 9 8 8 8 8 7 7 7 7 7 6 6
3 4 5 4 2 1 2 1 3 4 6 7 6 7 5 4 2 3 7 9 10 7 6 7 9 10 10 10 10 10 9 9 9 9 9 9 9 8 8 7 7 6 6 6 6 6 6 5 5
3 4 4 2 1 1 1 2 3 5 4 5 6 8 5 6 7 9 8 9 10 7 6 7 9 9 9 9 10 9 9 9 9 8 9 9 8 8 7 6 6 6 5 5 5 5 4 4 4
4 4 3 3 1 1 2 3 4 6 5 4 6 7 5 5 7 7 8 8 8 7 7 7 8 8 8 8 9 9 9 8 8 8 8 8 8 7 7 6 5 5 5 5 4 4 3 3 3
3 3 3 4 2 0 1 3 5 4 6 5 3 7 4 4 5 5 8 9 8 7 7 5 5 6 7 8 8 7 8 8 8 8 7 7 6 6 6 5 4 4 4 4 4 3 3 3 2
3 3 1 2 3 0 3 3 4 5 5 4 5 6 3 1 3 6 8 8 8 7 6 5 4 4 4 4 6 7 6 7 7 7 6 5 5 4 4 3 3 3 3 3 2 2 2 3 3
3 3 2 2 3 1 2 4 4 5 7 7 7 5 4 5 6 9 9 8 7 7 5 4 4 4 3 3 4 5 5 5 5 4 4 4 2 2 2 2 2 2 2 2 2 2 2 3 2
3 3 3 0 2 3 3 5 4 6 8 7 7 8 8 8 9 10 9 8 6 5 4 3 3 3 3 3 3 2 3 3 3 2 2 2 1 1 2 2 2 2 2 2 3 3 3 2 1
3 3 2 2 3 4 5 5 5 6 6 4 5 6 7 8 8 8 7 6 5 4 4 4 3 3 3 2 2 2 2 2 2 2 2 1 1 1 2 1 1 2 2 2 3 3 2 1 1
4 3 2 2 3 4 4 4 6 7 4 4 6 8 7 8 7 6 6 5 4 4 4 3 3 3 3 2 2 2 1 1 1 1 2 2 1 1 1 1 1 1 1 1 2 2 2 2 1
5 3 5 5 8 7 8 7 6 5 5 7 8 9 8 7 6 5 5 5 5 5 4 3 3 3 3 2 2 2 1 1 1 2 1 2 1 1 1 1 1 1 1 1 2 2 2 2 2
4 5 3 4 5 5 8 5 5 3 5 8 9 8 6 6 6 6 6 5 5 5 4 3 4 3 3 3 2 2 2 1 2 2 2 1 1 1 1 1 1 1 1 1 1 2 2 2 2
4 4 4 3 2 1 5 7 3 3 6 8 7 6 6 5 5 5 4 3 3 3 3 4 4 4 3 3 3 2 2 2 2 1 1 1 1 1 0 0 1 1 1 2 1 2 1 2 2
3 3 2 2 2 1 6 3 2 3 7 6 5 5 5 5 5 4 3 3 3 3 3 3 3 4 3 3 3 2 2 2 2 2 2 2 2 1 0 0 1 1 1 1 1 1 2 2 2
2 3 2 1 3 2 4 3 1 2 6 6 4 4 4 4 5 4 3 3 2 2 2 3 3 3 3 3 3 3 3 3 2 2 2 2 2 2 1 1 1 1 1 1 2 2 1 2 3
4 4 3 2 2 5 5 3 2 2 5 4 3 3 3 4 3 3 3 3 2 2 2 3 3 3 3 3 2 2 3 3 3 3 3 3 3 3 2 1 2 2 1 2 2 2 2 1 2
5 5 4 2 1 4 4 3 2 2 4 4 3 3 3 3 3 4 5 4 3 4 4 3 3 3 3 2 1 2 2 2 3 3 4 4 4 3 2 2 2 2 1 2 2 2 2 2 2
6 6 3 2 3 3 3 1 1 2 3 4 4 3 2 3 4 4 5 5 5 4 4 3 3 3 3 2 1 1 1 1 2 2 3 4 4 3 2 2 2 2 2 2 3 2 1 1 1
3 4 4 3 2 3 3 2 1 1 2 3 3 3 3 3 3 3 4 5 5 6 5 4 3 3 3 2 2 2 2 1 2 3 3 4 4 3 3 2 2 2 2 2 2 2 1 2 2
1 1 3 4 3 1 2 2 4 2 1 2 2 2 2 2 3 3 3 4 5 5 4 4 4 4 3 3 2 2 2 1 2 2 2 3 4 4 3 3 2 2 2 2 2 2 2 1 2
1 1 2 2 3 1 1 2 4 2 2 2 1 1 2 2 2 3 3 3 4 4 4 4 4 5 4 3 2 2 1 1 1 2 2 3 3 4 4 3 3 3 2 2 3 3 2 2 2
2 3 4 4 3 1 2 3 4 3 4 3 1 1 1 2 2 3 3 3 4 4 4 4 5 5 4 3 3 2 1 2 2 3 3 3 3 3 5 4 3 3 2 3 2 2 2 1 2
4 4 4 4 2 4 1 2 5 2 2 4 4 2 1 1 2 2 3 4 5 5 5 4 5 5 5 4 3 3 2 2 2 2 2 3 3 3 4 4 3 3 2 2 2 2 2 2 2
1 3 5 3 3 2 1 3 3 1 1 2 3 3 2 1 1 2 2 2 3 4 5 5 5 4 4 4 3 3 3 2 2 3 3 2 2 3 4 4 4 4 3 3 2 2 2 2 2
2 2 2 3 2 0 3 3 4 1 2 2 2 2 0 0 1 2 2 2 3 4 4 4 4 4 5 4 3 3 3 3 3 3 3 2 3 3 4 4 4 4 4 3 3 2 2 2 2
2 3 3 4 3 1 3 3 3 2 3 1 1 2 1 1 0 1 1 2 2 3 3 4 4 4 4 4 3 3 3 2 2 2 3 3 4 4 4 4 4 4 4 4 3 3 3 3 2
3 2 3 3 2 3 2 6 3 4 4 4 4 3 2 2 1 1 1 1 2 2 3 3 3 4 4 4 3 3 3 3 3 3 3 3 4 4 4 4 4 4 5 4 4 3 4 4 4
1 1 3 3 1 1 2 6 3 2 3 3 3 2 2 2 1 1 1 1 2 2 3 3 3 4 4 4 3 3 3 3 3 3 3 4 4 4 4 4 4 5 5 5 4 5 5 4 5
Wind_Direction
327 319 350 53 56 56 5 275 167 82 63 52 70 83 89 72 80 108 77 111 116 124 123 119 120 123 123 122 123 122 119 116 115 112 109 106 102 99 97 95 94 92 89 87 82 79 78 75 71
319 325 45 58 87 97 302 289 90 79 133 123 70 69 71 62 56 89 85 116 119 120 119 119 116 118 119 119 119 121 118 116 115 114 114 110 105 102 98 95 96 94 90 88 86 82 80 75 69
319 8 70 71 109 162 168 230 112 75 69 77 73 54 68 57 46 71 114 125 115 112 110 114 114 118 118 117 117 117 117 117 115 113 114 112 109 106 101 95 95 96 92 89 86 81 80 73 65
10 38 56 77 128 229 155 169 109 85 50 47 92 68 62 29 27 86 114 117 110 104 104 109 107 114 118 119 117 116 118 117 115 113 111 109 108 105 102 96 94 95 93 91 85 79 75 69 61
52 69 73 82 177 324 28 41 61 73 66 48 82 89 58 12 60 99 105 109 111 104 102 107 101 101 106 115 115 113 114 113 113 113 111 109 106 104 101 97 95 91 85 87 85 76 70 62 50
48 66 108 170 181 353 35 35 69 65 66 50 73 95 76 31 57 87 98 97 101 104 102 102 99 97 97 101 105 108 107 107 107 109 110 108 106 102 97 93 90 87 80 76 71 65 57 45 38
95 99 156 163 154 54 11 32 54 71 63 40 64 96 90 37 47 86 96 93 91 89 89 86 90 96 96 94 91 96 100 102 103 103 102 102 100 100 96 87 87 88 81 74 61 51 45 30 18
120 103 129 161 153 188 351 50 53 53 69 43 54 104 121 73 64 88 90 86 86 79 81 80 72 75 87 93 93 91 96 101 101 99 96 97 97 92 90 82 85 92 80 68 57 43 24 7 354
79 90 176 187 154 150 20 71 46 43 72 56 50 71 93 100 89 88 84 76 74 71 68 70 69 68 75 91 96 93 92 97 98 95 95 92 82 80 79 67 63 62 55 41 25 9 357 348 340
86 138 194 213 128 118 57 69 78 67 58 54 51 47 68 80 87 90 87 83 76 69 61 63 64 66 74 87 86 78 80 82 80 76 79 72 69 54 55 49 48 39 28 11 358 347 345 348 338
89 145 137 70 78 86 73 54 41 100 67 70 95 88 80 78 77 82 83 87 90 87 66 51 55 63 68 70 82 67 65 68 68 71 69 70 64 44 38 32 18 13 13 359 343 345 341 323 314
83 47 62 48 38 57 67 77 62 62 94 96 104 110 95 85 80 80 81 76 74 77 62 48 46 59 60 66 79 80 72 66 61 51 67 79 70 50 40 30 1 355 349 334 330 321 314 308 299
82 74 62 70 67 71 81 74 86 70 80 86 89 90 90 86 75 66 69 65 60 55 44 41 52 58 62 69 64 75 74 71 65 57 52 79 90 75 51 24 14 349 344 333 323 322 321 310 304
108 97 75 60 64 62 83 61 72 72 86 85 83 86 83 82 77 68 61 58 54 51 41 32 45 50 55 59 53 50 62 63 63 57 37 60 85 79 68 25 9 341 333 320 309 313 317 311 311
103 83 49 31 54 108 86 45 55 110 96 87 82 86 80 73 72 72 67 62 59 55 47 40 46 43 51 51 50 45 38 50 49 36 26 33 50 94 106 32 350 322 316 319 327 334 339 344 336
68 81 84 356 31 43 91 95 52 100 104 96 90 84 75 66 64 66 66 57 51 51 48 44 42 42 45 51 48 44 42 42 31 14 20 23 23 33 62 18 323 315 329 337 334 343 344 332 319
70 131 139 360 14 50 94 137 128 83 102 102 100 95 86 68 48 43 50 54 55 52 53 46 39 46 48 52 54 50 47 41 26 17 17 12 16 22 36 7 334 340 346 338 331 327 322 315 316
164 138 127 137 29 78 96 124 121 90 101 110 106 95 90 73 37 30 42 43 48 51 57 54 44 45 51 54 48 48 43 33 27 24 16 17 11 15 29 13 353 351 349 339 338 316 322 310 305
127 123 113 103 89 88 115 125 139 123 100 109 103 92 82 64 30 29 30 31 41 39 43 43 40 33 44 44 32 30 23 18 22 21 17 15 14 14 27 15 5 2 354 335 334 321 321 328 339
113 116 111 72 52 86 105 90 85 102 123 139 133 117 99 64 36 33 33 29 30 30 26 35 33 32 41 39 28 31 12 21 23 14 12 7 8 6 13 19 11 359 354 3 357 356 329 323 1
91 151 165 147 61 67 94 340 247 102 85 89 97 102 89 85 58 30 28 28 29 24 14 15 15 27 34 44 55 45 36 15 12 5 5 358 358 1 9 11 7 360 1 342 342 354 343 315 313
133 156 150 145 124 173 164 229 253 210 149 79 76 79 79 68 60 45 30 25 26 16 10 17 16 24 21 35 53 55 43 2 326 344 351 350 357 360 6 7 6 8 11 359 351 3 338 334 308
145 117 120 128 125 84 146 186 265 185 205 220 166 99 70 61 64 47 30 23 24 21 18 14 22 29 24 28 40 60 40 349 346 356 358 356 1 8 10 12 9 10 8 3 357 356 356 346 331
109 68 53 55 81 210 214 188 261 225 216 195 165 112 76 58 53 43 28 26 24 19 21 18 25 24 20 26 28 39 18 2 10 4 3 359 358 0 2 5 8 360 357 356 347 342 346 339 338
64 90 58 22 12 250 224 199 254 256 233 182 166 148 98 70 60 39 25 18 16 12 14 16 23 18 11 16 22 25 18 16 12 355 355 357 358 354 351 357 353 348 339 341 345 347 346 337 333
63 109 140 169 209 279 320 231 260 320 56 109 131 137 117 61 35 30 19 13 14 11 15 15 15 12 9 11 7 11 12 11 8 2 355 353 350 344 344 350 349 348 348 346 340 343 342 342 330
93 84 129 121 73 334 275 291 304 67 45 81 116 115 112 18 29 25 5 11 15 13 11 12 14 8 6 5 2 11 14 13 8 -0 358 360 355 352 355 349 347 345 346 347 343 345 337 330 317
77 124 89 102 125 263 295 274 251 231 231 221 204 206 235 241 339 350 344 359 7 10 7 11 13 6 358 358 2 8 4 7 6 12 9 3 357 357 354 349 344 346 347 347 344 334 329 327 329
25 58 89 98 139 155 263 272 232 215 206 205 220 221 220 233 257 287 318 338 357 9 9 5 6 4 360 357 1 10 8 12 16 15 4 358 357 355 351 345 347 351 349 346 343 334 333 334 332
108 126 133 140 227 188 206 270 287 216 213 206 222 231 228 230 243 265 294 337 350 354 357 360 2 1 355 357 6 7 9 12 15 10 359 359 1 359 353 351 352 354 352 348 345 338 339 333 330